Location: Balle Mobile Home Park
(33.9008°N, 86.5186°W)
Time: 00:16:42
(UTC+00:00)

Daily predictions for brighter satellites

Satellite Brightness Start Highest point End
(mag) Time Altitude Azimuth Time Altitude Azimuth Time Altitude Azimuth
Cosmos 44 4.3 00:05:59 10° N 00:10:54 33° NE 00:15:42 10° ESE
ERS-2 2.4 00:07:54 10° NNE 00:11:25 45° E 00:14:55 10° S
Cosmos 1633 Rocket 4.4 00:09:02 10° SE 00:12:10 19° E 00:15:19 10° NE
Timation 1 Rocket 4.4 00:09:21 10° NNW 00:15:14 58° ENE 00:21:05 10° SE
RESURS DK-1 2.6 00:11:27 10° NNW 00:15:34 75° WSW 00:19:40 10° SSE
Cosmos 2322 Rocket 3.6 00:13:21 10° SE 00:16:45 17° E 00:20:10 10° ENE
Meteor 2-17 Rocket 4.5 00:12:43 10° S 00:18:51 89° E 00:24:59 10° N
SAR-Lupe-4 3.7 00:16:07 10° NNE 00:19:37 52° E 00:23:06 10° S
Cosmos 1867 3.7 00:14:55 10° SSW 00:20:20 80° WNW 00:25:49 10° NNE
USA 305 4.5 00:18:02 10° WSW 00:21:54 32° NW 00:25:46 10° NNE
Okean O Rocket 4.1 00:18:58 10° SSW 00:22:40 27° W 00:26:22 10° NW
Atlas Centaur 2 3.9 00:17:19 10° W 00:23:12 31° SSW 00:28:01 10° SE
Centaur D-1AR AC-48 4.0 00:20:40 10° WSW 00:25:13 19° SSW 00:28:02 10° SSE
Cosmos 2082 3.6 00:20:36 10° NNW 00:26:13 72° ENE 00:31:48 10° SSE
CZ-4 R/B 1.2 00:23:24 10° SSE 00:27:12 70° ENE 00:31:02 10° N
PSLV R/B 3.9 00:23:27 10° NNE 00:27:34 88° WNW 00:31:37 10° SSW
Cosmos 1110 Rocket 4.3 00:22:35 10° SSW 00:27:52 75° WNW 00:33:13 10° NNE
Cosmos 1741 Rocket 4.0 00:23:02 10° NNW 00:28:22 73° ENE 00:33:38 10° SSE
ERBS 2.8 00:27:26 10° SSW 00:30:33 38° SE 00:32:35 18° ENE
Meteor 1-20 Rocket 4.5 00:25:49 10° SSE 00:30:56 42° E 00:36:03 10° NNE
IRS-1C Rocket 4.2 00:27:34 10° SSE 00:32:50 85° WSW 00:38:07 10° NNW
SL-24 R/B - RUBIN 2 4.1 00:29:54 10° NNW 00:35:27 78° WSW 00:40:16 10° SSE
SL-16 R/B 2.8 00:31:04 10° SSE 00:36:05 34° ESE 00:41:09 10° NE
SAR-Lupe-1 4.1 00:34:04 10° N 00:37:40 81° WNW 00:41:15 10° SSW
HJ-1C 3.3 00:41:36 10° SSE 00:44:52 59° ENE 00:48:10 10° N
Cosmos 1805 Rocket 4.4 00:41:11 10° SSW 00:45:26 53° W 00:49:44 10° N
BREEZE-M DEB (TANK) 3.9 00:44:41 10° SSW 00:46:56 23° SE 00:46:56 23° SE
SeaSat 1 3.8 00:42:53 10° N 00:47:27 39° WNW 00:52:01 10° SW
Cosmos 1689 Rocket 3.5 00:46:08 10° N 00:48:50 38° WNW 00:51:31 10° SW
Abrixas rocket 1.8 00:47:40 10° WSW 00:50:08 61° NW 00:50:44 42° NNE
DMSP B5D2-2 4.2 00:47:35 10° NNE 00:52:39 49° E 00:57:40 10° S
Cosmos 1271 Rocket 2.9 00:51:43 10° N 00:55:17 43° E 00:56:23 33° ESE
Cosmos 1602 3.8 00:51:38 10° S 00:55:21 50° E 00:59:07 10° NNE
Cosmos 2154 Rocket 4.0 00:53:03 10° SSE 00:59:06 56° E 01:05:10 10° NNE
Cosmos 1461 3.1 00:54:32 10° SSW 00:59:12 80° ESE 01:03:13 14° NNE
Cosmos 2263 Rocket 2.6 00:54:11 10° N 00:59:22 39° ENE 01:01:17 30° ESE
USA 234 4.4 00:53:48 10° NNE 00:59:44 39° NW 01:05:41 10° WSW
GP-B 4.4 01:02:29 23° NE 01:02:29 23° NE 01:04:39 10° NNE
SL-08 RB Rocket 3.6 00:56:20 10° SSE 01:00:44 65° ENE 01:05:12 10° N
H-2A R/B 3.0 00:59:39 10° S 01:04:52 53° W 01:10:11 10° NNW
Yuri Rocket 4.5 00:57:29 10° W 01:04:59 51° S 01:07:57 27° SE
Nadezhda 3 Rocket 4.3 01:00:00 10° N 01:06:03 44° E 01:12:04 10° SSE
Cosmos 1666 Rocket 3.8 01:03:01 10° SSW 01:07:21 71° W 01:11:42 10° N
Cosmos 2074 Rocket 4.2 01:01:28 10° S 01:07:44 76° W 01:14:01 10° N
ARGOS 3.4 01:03:49 10° S 01:09:11 73° WSW 01:14:37 10° NNW
Cosmos 1610 Rocket 4.3 01:03:52 10° S 01:09:56 69° E 01:16:06 10° NNE
Cosmos 1862 Rocket 4.0 01:10:56 10° N 01:14:35 44° NE 01:14:35 44° NE
Helios 1A Rocket 3.6 01:14:18 10° S 01:18:18 53° W 01:22:17 10° NNW
MetOp-A 4.2 01:17:36 38° SE 01:19:19 55° ENE 01:24:33 10° N
Cosmos 2184 Rocket 4.5 01:14:41 10° SSW 01:20:45 61° W 01:26:51 10° N
Cosmos 1295 Rocket 4.4 01:18:24 10° S 01:24:41 77° E 01:30:57 10° N
CZ-2C R/B 3.6 01:21:58 10° N 01:27:14 47° WNW 01:32:22 10° SW
Meteor 1-18 Rocket 4.3 01:21:25 10° N 01:27:16 57° E 01:28:27 49° ESE
COSMOS 2455 2.9 01:22:51 10° NNW 01:28:52 78° WSW 01:32:50 22° SSE
Cosmos 1437 4.5 01:26:36 10° NNW 01:28:31 28° WNW 01:28:31 28° WNW
CSL-04 Rocket 4.3 01:24:50 10° S 01:30:17 58° WSW 01:35:46 10° NNW
SEDSat Delta rocket 4.4 01:26:46 10° W 01:30:46 28° SSW 01:31:24 27° S
Lacrosse 5 rocket 1.8 01:29:13 10° NW 01:33:25 56° SW 01:33:43 55° SW
Cosmos 2360 Rocket 3.4 01:29:42 10° S 01:32:13 26° SSE 01:32:13 26° SSE
Meteor 2-12 Rocket 4.4 01:32:33 10° S 01:38:36 84° W 01:44:41 10° N
Cosmos 1992 Rocket 3.8 01:34:34 10° SSW 01:39:48 86° ESE 01:40:26 70° NNE
SME Rocket 4.1 01:35:30 10° NNE 01:43:56 88° WNW 01:49:18 10° SSW
Cosmos 2341 Rocket 3.9 01:37:56 10° S 01:44:14 68° E 01:50:29 10° NNE
Cosmos 962 Rocket 4.3 01:39:02 10° S 01:45:10 79° E 01:51:23 10° N
Cosmos 2322 Rocket 2.8 01:54:48 10° SW 02:00:16 53° WNW 02:03:06 27° N
Cosmos 968 Rocket 4.5 01:56:11 10° NNW 01:59:26 39° NNW 01:59:26 39° NNW
SL-16 R/B 4.0 02:15:21 10° WSW 02:20:09 28° WNW 02:24:58 10° N
ATLAS 2A CENTAUR R/B 4.3 01:47:27 10° W 02:26:34 52° SSW 02:29:35 44° S
Cosmos 2263 Rocket 4.2 02:38:42 10° NW 02:42:57 23° W 02:43:04 23° WSW
Centaur D AC-29 4.4 08:58:33 11° SE 08:58:33 11° SE 08:58:46 10° ESE
ALOS 4.0 09:40:21 10° NNE 09:42:44 27° NE 09:42:44 27° NE
H-2A R/B 4.1 09:45:03 42° SW 09:52:38 67° S 09:59:06 10° E
H-2A R/B 3.5 10:02:14 10° SE 10:06:16 37° ENE 10:10:13 10° N
Cosmos 2344 4.4 09:59:09 10° S 10:06:38 46° ESE 10:13:38 10° NE
Meteosat 1 Rocket2 4.4 10:08:28 40° S 10:08:30 40° S 10:13:01 10° ESE
Cosmos 2278 3.9 10:10:01 17° NNW 10:14:27 71° ENE 10:20:07 10° SSE
CBERS 1 LM4 rocket 4.3 10:10:57 10° NNE 10:15:51 85° E 10:15:51 85° E
SeaSat 1 2.8 10:12:31 10° SE 10:17:22 64° ENE 10:20:52 19° NNW
Meteor 1-27 4.2 10:22:22 60° WNW 10:22:22 60° WNW 10:27:29 10° N
Meteor 2-15 4.4 10:24:03 56° W 10:24:14 56° W 10:30:17 10° N
S3M 4.2 10:18:19 10° S 10:24:22 70° E 10:30:27 10° NNE
DELTA 2 R/B (1) 4.3 10:29:31 36° SSW 10:29:31 36° SSW 10:34:09 10° SSE
ATLAS CENTAUR R/B 4.1 10:31:35 10° N 10:34:23 17° NE 10:37:16 10° E
Cosmos 2082 Rocket 3.7 10:37:25 20° NNW 10:37:25 20° NNW 10:40:05 10° N
Cosmos 1932 4.4 10:30:29 11° NNW 10:36:35 84° ENE 10:42:45 10° SSE
FENGYUN 3A 3.8 10:32:53 10° N 10:38:04 47° WNW 10:38:31 46° W
Cosmos 1745 Rocket 4.3 10:33:42 10° N 10:39:57 71° E 10:46:15 10° SSE
Iridium 4 Rocket 4.2 10:43:04 35° NW 10:43:04 35° NW 10:46:32 10° NNW
COSMO-SKYMED 1 3.9 10:38:45 10° SE 10:42:48 41° ENE 10:46:53 10° N
Cosmos 1452 Rocket 4.0 10:44:07 37° SW 10:44:07 37° SW 10:48:11 10° S
NOSS 2-2 (C) 3.3 10:44:15 51° NNW 10:44:15 51° NNW 10:47:13 10° NNE
SL-08 ROCKET BODY 4.3 10:38:00 10° N 10:44:05 78° W 10:50:14 10° S
Meteor 1-4 Rocket 3.2 10:41:10 10° S 10:44:50 56° E 10:48:29 10° NNE
CZ-4B R/B 4.2 10:42:12 10° NNE 10:46:27 45° E 10:50:45 10° S
Milstar 3 Cent rocket 3.4 10:45:53 18° SSW 10:48:15 28° SSE 10:52:44 10° ESE
Cosmos 1980 Rocket 2.3 10:44:24 19° NW 10:48:24 52° WSW 10:53:52 10° S
Meteor 2-3 Rocket 4.1 10:45:10 10° NNW 10:50:24 38° W 10:55:40 10° SSW
Cosmos 1862 4.2 10:46:31 10° N 10:50:28 50° E 10:54:23 10° SSE
Meteor 1-31 Rocket 2.7 10:50:35 10° N 10:54:26 61° WNW 10:57:18 17° SSW
SL-08 R/B 4.4 10:48:27 10° NNW 10:54:30 59° W 11:00:28 10° S
IUS-12 SRM-1 4.3 10:54:50 20° SSW 10:55:48 23° S 10:59:34 10° ESE
Cosmos 1606 4.0 10:52:58 10° SSE 10:56:36 42° E 11:00:17 10° NNE
Cosmos 2322 Rocket 3.7 10:52:50 10° N 10:58:02 36° ENE 11:03:13 10° SE
ADEOS 3.6 10:54:15 10° N 10:59:21 57° WNW 11:04:27 10° SSW
NOSS 2-2 (E) 4.2 11:00:09 26° NW 11:00:09 26° NW 11:02:45 10° N
Cosmos 1110 Rocket 3.9 10:54:31 10° NNW 10:59:45 67° WSW 11:04:54 10° S
Meteor 2-2 Rocket 4.4 11:00:36 10° SSW 11:06:23 59° W 11:12:18 10° N
Cosmos 1461 3.5 11:05:10 29° WNW 11:06:25 36° WSW 11:10:15 10° S
Cosmos 1766 Rocket 4.4 11:07:11 27° W 11:07:11 27° W 11:10:48 10° SSW
CZ-4B R/B 4.2 11:06:31 10° N 11:10:01 35° WNW 11:12:03 20° SW
X-37B 3.2 11:13:00 10° NNW 11:14:30 13° N 11:15:59 10° NE
Cosmos 2315 Rocket 4.0 11:10:40 10° S 11:16:55 86° W 11:23:09 10° N
SL-16 R/B 2.5 11:12:29 10° NNW 11:18:10 71° ENE 11:23:47 10° SSE
ALOS 4.0 11:19:14 10° NNW 11:21:15 15° WNW 11:21:15 15° WNW
Cosmos 1833 4.5 11:17:44 10° SSW 11:23:22 72° ESE 11:28:59 10° NNE
Cosmos 1408 Rocket 4.1 11:20:20 10° NNW 11:24:22 35° W 11:28:21 10° SSW
deb Chang Zheng 4 3.6 11:25:22 10° N 11:29:32 56° WNW 11:33:43 10° SSW
SKYMED 2 3.7 11:26:34 10° S 11:30:46 50° W 11:35:00 10° NNW
H-2A R/B 2.9 11:29:17 10° N 11:33:04 50° WNW 11:36:50 10° SSW
Cosmos 2221 3.8 11:33:04 10° SW 11:36:20 20° WNW 11:39:36 10° NNW
MOS 1 Rocket 3.4 11:32:22 10° S 11:36:25 42° W 11:40:31 10° NNW
Cosmos 1500 Rocket 3.7 11:32:29 10° NNW 11:36:41 51° W 11:40:54 10° SSW
YAOGAN 6 2.5 11:37:27 10° N 11:40:56 58° WNW 11:44:21 10° SSW
CZ-3 R/B 3.2 11:29:03 10° SW 11:41:33 34° S 11:46:15 10° ESE
H-2A R/B 3.6 11:39:40 10° SW 11:42:17 15° W 11:44:52 10° WNW
COSMOS 2487 3.3 11:40:29 10° S 11:43:48 53° ESE 11:47:08 10° NNE
Meteor PRIRODA 4.4 11:40:41 10° N 11:44:00 32° WNW 11:47:20 10° SW
Sich 1 3.5 11:40:02 10° N 11:44:28 67° E 11:48:50 10° SSE
ASTRO E2 3.2 11:41:32 10° WSW 11:45:25 52° S 11:49:18 10° E
SJ-7 4.4 11:41:54 10° N 11:45:49 58° WNW 11:49:43 10° SSW
USA 215 3.5 11:42:09 10° NE 11:48:44 80° SE 11:55:16 10° SW
CZ-4B R/B 2.5 11:46:23 10° SSW 11:49:03 23° W 11:51:41 10° NW
SL-27 R/B 3.9 11:48:57 10° WSW 11:51:28 19° WNW 11:54:02 10° NNW
SeaSat 1 4.2 11:53:02 10° SW 11:55:10 13° WSW 11:57:19 10° WNW
